This is the latest recevied weather packets stored in our database for station/object VE4JMP. If no packets are shown the sender has not sent any weather packets the latest 10 day(s).
| Time | Temp. | Humidity | Pressure | Rain* | Wind** | Luminosity | Snow |
|---|---|---|---|---|---|---|---|
| 1777728617 | 8.33° C | 50% | 1010.7 hPa | 0 mm | - | - | - |
| 1777728036 | 7.78° C | 52% | 1011 hPa | 0 mm | - | - | - |
| 1777720829 | 3.33° C | 60% | 1012.5 hPa | 0 mm | - | - | - |
| 1777714815 | 3.33° C | 59% | 1014.3 hPa | 0 mm | - | - | - |
| 1777709436 | 3.33° C | 59% | 1015.6 hPa | 0 mm | - | - | - |
| 1777708224 | 3.33° C | 58% | 1015.9 hPa | 0 mm | - | - | - |
| 1777707628 | 3.33° C | 58% | 1016 hPa | 0 mm | - | - | - |
| 1777707032 | 2.78° C | 58% | 1016.1 hPa | 0 mm | - | - | - |
| 1777704058 | 3.89° C | 55% | 1016.6 hPa | 0 mm | - | - | - |
| 1777701615 | 2.78° C | 57% | 1017.1 hPa | 0 mm | - | - | - |
| 1777697426 | 3.33° C | 54% | 1017.7 hPa | 0 mm | - | - | - |
| 1777696236 | 3.89° C | 51% | 1017.8 hPa | 0 mm | - | - | - |
| 1777695024 | 5° C | 48% | 1018 hPa | 0 mm | - | - | - |
| 1777694428 | 5.56° C | 47% | 1018 hPa | 0 mm | - | - | - |
| 1777689029 | 6.67° C | 46% | 1017.9 hPa | 0 mm | - | - | - |
| 1777686627 | 9.44° C | 40% | 1018 hPa | 0 mm | - | - | - |
| 1777682420 | 14.44° C | 31% | 1018.4 hPa | 0 mm | - | - | - |
| 1777681844 | 16.11° C | 29% | 1018.5 hPa | 0 mm | - | - | - |
| 1777679422 | 17.22° C | 27% | 1018.9 hPa | 0 mm | - | - | - |
| 1777677020 | 16.67° C | 28% | 1019.3 hPa | 0 mm | - | - | - |
| 1777672217 | 13.89° C | 30% | 1020 hPa | 0 mm | - | - | - |
| 1777670429 | 14.44° C | 31% | 1020.4 hPa | 0 mm | - | - | - |
| 1777668028 | 13.89° C | 33% | 1020.5 hPa | 0 mm | - | - | - |
| 1777666818 | 13.33° C | 33% | 1020.7 hPa | 0 mm | - | - | - |
| 1777666242 | 13.89° C | 32% | 1020.9 hPa | 0 mm | - | - | - |
* Rain latest hour (hover to see other rain measurements)
** Current wind speed in m/s (hover to see current wind gust speed)